{"data":{"norad_id":63763,"epoch":"2026-05-25T03:50:21.409728Z","epoch_age_seconds":61369,"freshness":"FRESH","line1":"1 63763U 25089N   26145.15997002  .00232147  00000+0  17569-2 0  9998","line2":"2 63763  42.9994 191.1806 0001574 258.8317 101.2374 15.70917829 62051","mean_motion":15.70917829,"eccentricity":0.0001574,"inclination_deg":42.9994,"raan_deg":191.1806,"arg_perigee_deg":258.8317,"mean_anomaly_deg":101.2374,"bstar":0.0017569,"rev_number":6205,"period_min":91.666156778974,"perigee_km":355.21262483049,"apogee_km":357.33261697915,"semimajor_km":6734.4096209048,"source":"CELESTRAK","updated_at":"2026-05-25T13:38:20.105634Z"}}